Location: Brachbach
(49.1847°N, 9.7240°E)
Time: 07:33:02
(UTC+00:00)

FO-29 - Pass Details

Date: 22 March 2026
Orbit: 801 x 1320 km, 98.5° (Epoch: 17 April)

Event Time Altitude Azimuth Distance (km) Brightness Sun altitude
Rises 21:35:38 0° 9° (N) 4,183 13.4 -34.4°
Reaches altitude 10° 21:38:37 10° 359° (N) 3,266 12.8 -34.7°
Maximum altitude 21:44:54 29° 304° (NW) 2,194 11.7 -35.2°
Drops below altitude 10° 21:51:21 10° 249° (WSW) 3,346 12.3 -35.8°
Sets 21:54:27 0° 239° (WSW) 4,301 12.8 -36.0°
